QPF
0.05 0.09 0.11 0.10 0.08 0.07 0.07 0.08 0.06 0.04 0.03 0.02 0.01 0.01 0.03 0.02 0.02 0.03 0.05 0.03 0.02 0.01 0.02 0.03 0.03 0.03 0.03 0.04 0.05 0.04 0.04 0.04 0.03 0.03 0.03 0.03 0.04 0.03 0.03 0.03 0.03 0.03 0.03
0.03 0.04 0.05 0.05 0.05 0.04 0.06 0.06 0.06 0.05 0.04 0.04 0.02 0.03 0.04 0.05 0.05 0.06 0.08 0.08 0.03 0.01 0.01 0.02 0.03 0.04 0.04 0.04 0.05 0.04 0.04 0.04 0.03 0.03 0.03 0.03 0.03 0.03 0.04 0.03 0.03 0.03 0.03
0.03 0.04 0.03 0.03 0.03 0.03 0.03 0.05 0.07 0.04 0.04 0.04 0.04 0.04 0.04 0.05 0.07 0.09 0.08 0.06 0.03 0.02 0.02 0.03 0.03 0.03 0.03 0.04 0.05 0.04 0.04 0.03 0.03 0.03 0.03 0.03 0.03 0.03 0.03 0.03 0.03 0.03 0.04
0.02 0.03 0.03 0.02 0.02 0.02 0.03 0.05 0.04 0.04 0.04 0.04 0.04 0.03 0.03 0.03 0.05 0.05 0.04 0.05 0.05 0.05 0.04 0.03 0.04 0.03 0.04 0.04 0.04 0.05 0.05 0.03 0.02 0.03 0.03 0.03 0.04 0.03 0.03 0.03 0.04 0.04 0.04
0.02 0.03 0.03 0.04 0.03 0.02 0.03 0.03 0.04 0.05 0.05 0.04 0.02 0.03 0.03 0.06 0.09 0.06 0.04 0.04 0.05 0.06 0.05 0.05 0.06 0.05 0.05 0.05 0.05 0.05 0.05 0.04 0.03 0.03 0.04 0.05 0.05 0.05 0.05 0.04 0.04 0.04 0.04
0.02 0.03 0.02 0.04 0.03 0.03 0.03 0.04 0.05 0.06 0.06 0.06 0.03 0.03 0.03 0.03 0.04 0.04 0.06 0.06 0.04 0.03 0.05 0.07 0.06 0.05 0.04 0.05 0.06 0.06 0.05 0.05 0.05 0.04 0.05 0.05 0.05 0.05 0.05 0.04 0.04 0.03 0.03
0.02 0.03 0.03 0.04 0.04 0.04 0.04 0.05 0.07 0.07 0.06 0.05 0.05 0.05 0.04 0.02 0.02 0.03 0.04 0.04 0.04 0.04 0.05 0.07 0.05 0.04 0.04 0.05 0.06 0.05 0.04 0.04 0.04 0.05 0.06 0.08 0.06 0.05 0.04 0.04 0.04 0.04 0.05
0.01 0.02 0.03 0.03 0.03 0.05 0.04 0.05 0.07 0.06 0.05 0.05 0.06 0.09 0.07 0.05 0.03 0.02 0.03 0.04 0.05 0.05 0.05 0.06 0.06 0.06 0.06 0.07 0.04 0.04 0.03 0.03 0.04 0.05 0.07 0.07 0.06 0.06 0.05 0.04 0.05 0.05 0.06
0.01 0.02 0.02 0.03 0.03 0.04 0.04 0.04 0.04 0.04 0.05 0.05 0.05 0.07 0.09 0.07 0.05 0.03 0.02 0.04 0.06 0.05 0.05 0.05 0.04 0.04 0.05 0.06 0.06 0.05 0.03 0.02 0.02 0.05 0.05 0.05 0.05 0.06 0.08 0.08 0.05 0.06 0.07
0.01 0.01 0.01 0.02 0.03 0.03 0.04 0.03 0.04 0.03 0.04 0.04 0.04 0.05 0.06 0.07 0.07 0.05 0.03 0.05 0.07 0.05 0.05 0.04 0.04 0.03 0.04 0.05 0.06 0.06 0.06 0.04 0.03 0.04 0.04 0.05 0.05 0.07 0.11 0.14 0.12 0.09 0.09
0.01 0.01 0.01 0.02 0.02 0.03 0.03 0.03 0.04 0.03 0.04 0.04 0.05 0.05 0.05 0.06 0.06 0.07 0.06 0.07 0.07 0.05 0.04 0.04 0.04 0.04 0.03 0.04 0.05 0.06 0.07 0.06 0.05 0.04 0.05 0.06 0.05 0.08 0.15 0.19 0.20 0.20 0.15
0.02 0.01 0.01 0.01 0.02 0.02 0.02 0.02 0.02 0.03 0.04 0.04 0.04 0.04 0.05 0.07 0.07 0.07 0.07 0.08 0.07 0.05 0.05 0.05 0.05 0.04 0.04 0.04 0.04 0.05 0.06 0.05 0.04 0.05 0.05 0.05 0.05 0.06 0.10 0.15 0.16 0.17 0.20
0.03 0.02 0.02 0.02 0.03 0.02 0.02 0.02 0.03 0.04 0.04 0.04 0.03 0.04 0.04 0.04 0.06 0.05 0.06 0.06 0.07 0.05 0.05 0.05 0.04 0.03 0.03 0.03 0.04 0.05 0.05 0.05 0.05 0.06 0.05 0.04 0.04 0.05 0.07 0.11 0.13 0.12 0.12
0.03 0.03 0.03 0.03 0.03 0.02 0.02 0.03 0.02 0.03 0.04 0.04 0.03 0.04 0.03 0.04 0.05 0.04 0.04 0.05 0.06 0.06 0.07 0.07 0.05 0.04 0.03 0.03 0.04 0.04 0.05 0.05 0.06 0.06 0.05 0.05 0.04 0.04 0.04 0.06 0.09 0.12 0.12
0.04 0.05 0.05 0.03 0.03 0.02 0.02 0.03 0.02 0.03 0.04 0.04 0.03 0.03 0.03 0.04 0.04 0.03 0.02 0.03 0.06 0.06 0.06 0.06 0.06 0.05 0.04 0.04 0.04 0.03 0.03 0.04 0.05 0.05 0.05 0.04 0.03 0.02 0.02 0.03 0.04 0.07 0.09
0.06 0.07 0.07 0.05 0.04 0.03 0.02 0.02 0.03 0.02 0.03 0.04 0.04 0.04 0.03 0.02 0.02 0.02 0.02 0.03 0.03 0.05 0.05 0.04 0.05 0.05 0.05 0.03 0.04 0.03 0.02 0.02 0.03 0.03 0.04 0.03 0.03 0.03 0.02 0.01 0.02 0.03 0.05
0.07 0.08 0.08 0.07 0.07 0.06 0.05 0.05 0.04 0.03 0.03 0.04 0.05 0.04 0.03 0.03 0.04 0.03 0.02 0.03 0.03 0.04 0.04 0.04 0.05 0.05 0.04 0.03 0.03 0.03 0.02 0.02 0.01 0.01 0.02 0.02 0.02 0.02 0.01 0.01 0.01 0.01 0.01
0.07 0.08 0.08 0.08 0.07 0.06 0.06 0.05 0.05 0.04 0.06 0.08 0.06 0.06 0.04 0.05 0.07 0.05 0.04 0.04 0.04 0.05 0.05 0.05 0.05 0.04 0.03 0.03 0.03 0.03 0.02 0.01 0.01 0.01 0.01 0.01 0.02 0.02 0.01 0.00 0.00 0.00 0.00
0.07 0.08 0.08 0.08 0.07 0.07 0.07 0.07 0.06 0.06 0.06 0.05 0.05 0.05 0.05 0.07 0.07 0.06 0.05 0.05 0.05 0.04 0.05 0.06 0.05 0.04 0.03 0.02 0.04 0.03 0.03 0.03 0.01 0.01 0.01 0.01 0.02 0.02 0.01 0.01 0.00 0.00 0.00
0.07 0.09 0.09 0.07 0.07 0.07 0.08 0.07 0.05 0.04 0.04 0.04 0.04 0.04 0.04 0.06 0.07 0.06 0.05 0.05 0.05 0.05 0.06 0.07 0.06 0.04 0.03 0.03 0.04 0.04 0.04 0.04 0.03 0.01 0.02 0.03 0.03 0.03 0.02 0.01 0.01 0.00 0.00
0.07 0.09 0.08 0.06 0.06 0.05 0.04 0.04 0.04 0.04 0.04 0.04 0.04 0.03 0.04 0.05 0.05 0.04 0.03 0.04 0.05 0.05 0.06 0.06 0.05 0.04 0.03 0.03 0.04 0.04 0.05 0.05 0.05 0.03 0.03 0.04 0.05 0.04 0.04 0.02 0.01 0.01 0.01
0.06 0.07 0.07 0.05 0.04 0.03 0.03 0.02 0.03 0.04 0.05 0.04 0.03 0.04 0.05 0.05 0.03 0.02 0.01 0.02 0.02 0.04 0.05 0.05 0.05 0.05 0.04 0.03 0.03 0.04 0.05 0.06 0.05 0.04 0.04 0.05 0.06 0.07 0.06 0.04 0.03 0.02 0.01
0.07 0.07 0.07 0.05 0.05 0.04 0.03 0.02 0.02 0.02 0.04 0.05 0.04 0.04 0.02 0.02 0.03 0.02 0.01 0.01 0.01 0.02 0.02 0.04 0.05 0.05 0.05 0.04 0.04 0.05 0.05 0.05 0.05 0.04 0.05 0.05 0.07 0.08 0.08 0.08 0.05 0.03 0.02
0.08 0.08 0.07 0.05 0.05 0.05 0.05 0.04 0.03 0.03 0.03 0.04 0.04 0.04 0.03 0.03 0.03 0.03 0.02 0.02 0.02 0.02 0.02 0.02 0.04 0.04 0.03 0.03 0.04 0.04 0.04 0.05 0.07 0.07 0.06 0.06 0.08 0.09 0.09 0.10 0.08 0.05 0.03
0.08 0.08 0.07 0.06 0.05 0.06 0.05 0.04 0.04 0.04 0.04 0.03 0.03 0.03 0.02 0.03 0.03 0.02 0.03 0.02 0.01 0.02 0.01 0.01 0.01 0.02 0.01 0.01 0.02 0.02 0.04 0.07 0.10 0.10 0.08 0.08 0.09 0.10 0.09 0.08 0.06 0.05 0.03
0.09 0.09 0.08 0.07 0.06 0.06 0.05 0.03 0.03 0.03 0.03 0.03 0.04 0.03 0.03 0.02 0.02 0.01 0.02 0.03 0.02 0.02 0.02 0.03 0.02 0.01 0.01 0.01 0.01 0.01 0.03 0.05 0.08 0.08 0.07 0.08 0.06 0.06 0.07 0.06 0.04 0.03 0.02
MSLP
1007.93 1007.97 1007.95 1007.91 1007.85 1007.80 1007.79 1007.81 1007.89 1008.04 1008.27 1008.58 1008.99 1009.47 1010.00 1010.54 1011.06 1011.51 1011.87 1012.11 1012.24 1012.29 1012.30 1012.29 1012.31 1012.35 1012.43 1012.52 1012.61 1012.65 1012.66 1012.61 1012.55 1012.48 1012.43 1012.43 1012.47 1012.54 1012.63 1012.70 1012.74 1012.73 1012.68
1008.35 1008.42 1008.45 1008.45 1008.45 1008.44 1008.47 1008.53 1008.65 1008.84 1009.11 1009.46 1009.88 1010.36 1010.85 1011.34 1011.77 1012.12 1012.37 1012.53 1012.60 1012.63 1012.65 1012.68 1012.74 1012.84 1012.95 1013.05 1013.11 1013.11 1013.04 1012.93 1012.79 1012.66 1012.56 1012.53 1012.55 1012.61 1012.68 1012.74 1012.76 1012.73 1012.66
1008.72 1008.79 1008.86 1008.92 1008.98 1009.05 1009.14 1009.26 1009.44 1009.67 1009.97 1010.34 1010.76 1011.21 1011.65 1012.06 1012.40 1012.65 1012.81 1012.90 1012.93 1012.95 1012.98 1013.04 1013.15 1013.29 1013.43 1013.54 1013.58 1013.55 1013.43 1013.26 1013.07 1012.88 1012.75 1012.68 1012.68 1012.73 1012.80 1012.85 1012.86 1012.81 1012.72
1009.07 1009.14 1009.23 1009.35 1009.47 1009.62 1009.78 1009.97 1010.19 1010.45 1010.77 1011.13 1011.53 1011.93 1012.32 1012.66 1012.93 1013.11 1013.20 1013.24 1013.25 1013.26 1013.30 1013.39 1013.53 1013.70 1013.86 1013.98 1014.02 1013.97 1013.83 1013.63 1013.40 1013.19 1013.03 1012.94 1012.91 1012.94 1012.99 1013.03 1013.03 1012.97 1012.86
1009.41 1009.47 1009.58 1009.75 1009.94 1010.15 1010.37 1010.60 1010.84 1011.11 1011.42 1011.75 1012.11 1012.48 1012.82 1013.11 1013.34 1013.48 1013.55 1013.57 1013.57 1013.58 1013.63 1013.73 1013.89 1014.06 1014.23 1014.35 1014.40 1014.36 1014.22 1014.02 1013.80 1013.58 1013.41 1013.30 1013.26 1013.26 1013.28 1013.29 1013.27 1013.18 1013.05
1009.72 1009.78 1009.92 1010.12 1010.36 1010.61 1010.87 1011.11 1011.35 1011.60 1011.87 1012.17 1012.49 1012.82 1013.14 1013.42 1013.64 1013.79 1013.87 1013.90 1013.90 1013.92 1013.97 1014.06 1014.21 1014.37 1014.54 1014.67 1014.73 1014.71 1014.61 1014.45 1014.25 1014.06 1013.90 1013.78 1013.71 1013.68 1013.66 1013.62 1013.56 1013.44 1013.28
1010.02 1010.09 1010.25 1010.48 1010.75 1011.02 1011.28 1011.51 1011.72 1011.93 1012.14 1012.39 1012.67 1012.98 1013.30 1013.59 1013.85 1014.04 1014.16 1014.22 1014.25 1014.27 1014.30 1014.38 1014.49 1014.63 1014.78 1014.90 1014.99 1015.01 1014.97 1014.87 1014.73 1014.58 1014.44 1014.33 1014.24 1014.16 1014.09 1014.00 1013.88 1013.73 1013.53
1010.34 1010.41 1010.60 1010.84 1011.12 1011.40 1011.63 1011.83 1011.98 1012.13 1012.28 1012.48 1012.72 1013.02 1013.35 1013.69 1013.99 1014.24 1014.43 1014.54 1014.59 1014.61 1014.62 1014.66 1014.72 1014.82 1014.94 1015.06 1015.17 1015.24 1015.27 1015.25 1015.19 1015.11 1015.00 1014.89 1014.78 1014.67 1014.54 1014.39 1014.22 1014.02 1013.80
1010.69 1010.79 1010.99 1011.25 1011.52 1011.77 1011.97 1012.11 1012.20 1012.28 1012.37 1012.51 1012.73 1013.02 1013.37 1013.74 1014.11 1014.42 1014.66 1014.82 1014.90 1014.91 1014.90 1014.88 1014.89 1014.93 1015.01 1015.13 1015.25 1015.38 1015.48 1015.55 1015.57 1015.56 1015.50 1015.41 1015.29 1015.13 1014.96 1014.76 1014.54 1014.31 1014.08
1011.10 1011.24 1011.45 1011.71 1011.96 1012.18 1012.33 1012.42 1012.45 1012.46 1012.49 1012.59 1012.77 1013.05 1013.40 1013.80 1014.21 1014.58 1014.86 1015.05 1015.14 1015.14 1015.10 1015.03 1014.98 1014.96 1015.01 1015.10 1015.24 1015.40 1015.57 1015.71 1015.82 1015.87 1015.87 1015.80 1015.68 1015.51 1015.31 1015.08 1014.83 1014.59 1014.35
1011.58 1011.74 1011.96 1012.21 1012.44 1012.63 1012.74 1012.77 1012.76 1012.72 1012.70 1012.75 1012.90 1013.15 1013.50 1013.90 1014.32 1014.70 1015.01 1015.21 1015.30 1015.29 1015.21 1015.10 1014.99 1014.93 1014.93 1015.00 1015.14 1015.33 1015.54 1015.74 1015.91 1016.02 1016.06 1016.03 1015.93 1015.77 1015.56 1015.32 1015.07 1014.83 1014.61
1012.07 1012.25 1012.48 1012.71 1012.92 1013.08 1013.16 1013.17 1013.12 1013.05 1013.01 1013.02 1013.13 1013.35 1013.66 1014.04 1014.44 1014.81 1015.10 1015.30 1015.38 1015.36 1015.25 1015.11 1014.96 1014.86 1014.82 1014.86 1014.98 1015.17 1015.39 1015.62 1015.83 1015.99 1016.08 1016.08 1016.01 1015.88 1015.69 1015.48 1015.25 1015.04 1014.84
1012.53 1012.72 1012.93 1013.15 1013.34 1013.48 1013.56 1013.57 1013.52 1013.45 1013.39 1013.38 1013.46 1013.63 1013.89 1014.21 1014.55 1014.88 1015.15 1015.32 1015.39 1015.36 1015.25 1015.09 1014.92 1014.79 1014.72 1014.72 1014.81 1014.97 1015.18 1015.41 1015.62 1015.80 1015.92 1015.97 1015.94 1015.85 1015.72 1015.55 1015.37 1015.20 1015.04
1012.88 1013.07 1013.27 1013.47 1013.65 1013.80 1013.89 1013.92 1013.90 1013.84 1013.80 1013.78 1013.83 1013.95 1014.14 1014.39 1014.67 1014.94 1015.16 1015.30 1015.36 1015.33 1015.23 1015.08 1014.91 1014.76 1014.66 1014.63 1014.67 1014.78 1014.94 1015.13 1015.33 1015.50 1015.64 1015.72 1015.74 1015.72 1015.65 1015.54 1015.43 1015.30 1015.18
1013.10 1013.27 1013.46 1013.65 1013.83 1013.99 1014.11 1014.18 1014.21 1014.20 1014.18 1014.17 1014.20 1014.27 1014.40 1014.57 1014.77 1014.97 1015.15 1015.27 1015.33 1015.31 1015.23 1015.11 1014.96 1014.81 1014.69 1014.61 1014.59 1014.63 1014.72 1014.85 1014.99 1015.14 1015.28 1015.39 1015.46 1015.50 1015.50 1015.47 1015.42 1015.34 1015.26
1013.18 1013.33 1013.50 1013.69 1013.88 1014.07 1014.23 1014.36 1014.44 1014.49 1014.51 1014.51 1014.52 1014.55 1014.62 1014.72 1014.85 1014.99 1015.12 1015.23 1015.30 1015.31 1015.27 1015.19 1015.07 1014.93 1014.79 1014.67 1014.59 1014.55 1014.55 1014.59 1014.67 1014.77 1014.89 1015.01 1015.12 1015.22 1015.29 1015.33 1015.34 1015.32 1015.26
1013.16 1013.30 1013.47 1013.65 1013.86 1014.08 1014.28 1014.46 1014.60 1014.69 1014.74 1014.76 1014.76 1014.76 1014.78 1014.82 1014.89 1014.98 1015.09 1015.19 1015.28 1015.33 1015.34 1015.30 1015.22 1015.10 1014.95 1014.80 1014.65 1014.52 1014.43 1014.38 1014.38 1014.42 1014.51 1014.63 1014.76 1014.90 1015.03 1015.13 1015.20 1015.22 1015.18
1013.12 1013.27 1013.43 1013.63 1013.85 1014.09 1014.32 1014.53 1014.71 1014.83 1014.90 1014.92 1014.91 1014.89 1014.86 1014.86 1014.88 1014.94 1015.03 1015.14 1015.25 1015.34 1015.40 1015.41 1015.37 1015.26 1015.11 1014.92 1014.72 1014.52 1014.34 1014.20 1014.12 1014.11 1014.15 1014.25 1014.39 1014.56 1014.73 1014.88 1014.99 1015.04 1015.03
1013.14 1013.30 1013.48 1013.68 1013.91 1014.15 1014.39 1014.61 1014.79 1014.92 1014.98 1015.00 1014.97 1014.92 1014.87 1014.84 1014.83 1014.87 1014.96 1015.07 1015.20 1015.32 1015.42 1015.47 1015.45 1015.37 1015.21 1015.01 1014.76 1014.50 1014.25 1014.04 1013.90 1013.82 1013.82 1013.89 1014.03 1014.20 1014.39 1014.57 1014.71 1014.79 1014.80
1013.26 1013.44 1013.64 1013.85 1014.08 1014.31 1014.53 1014.72 1014.87 1014.97 1015.02 1015.01 1014.96 1014.89 1014.82 1014.76 1014.74 1014.77 1014.85 1014.96 1015.10 1015.24 1015.36 1015.43 1015.43 1015.36 1015.21 1014.99 1014.73 1014.44 1014.15 1013.89 1013.69 1013.56 1013.52 1013.56 1013.67 1013.84 1014.03 1014.23 1014.39 1014.50 1014.53
1013.46 1013.68 1013.90 1014.12 1014.33 1014.53 1014.71 1014.85 1014.96 1015.01 1015.01 1014.97 1014.90 1014.81 1014.72 1014.66 1014.63 1014.66 1014.72 1014.83 1014.96 1015.10 1015.21 1015.28 1015.29 1015.22 1015.08 1014.87 1014.60 1014.31 1014.01 1013.73 1013.51 1013.35 1013.27 1013.28 1013.36 1013.50 1013.68 1013.87 1014.04 1014.17 1014.22
1013.70 1013.97 1014.21 1014.43 1014.62 1014.78 1014.90 1014.98 1015.02 1015.02 1014.98 1014.91 1014.81 1014.72 1014.63 1014.57 1014.54 1014.55 1014.60 1014.69 1014.79 1014.90 1014.99 1015.04 1015.03 1014.97 1014.83 1014.64 1014.40 1014.13 1013.85 1013.59 1013.36 1013.19 1013.09 1013.07 1013.11 1013.22 1013.37 1013.54 1013.71 1013.84 1013.92
1013.91 1014.21 1014.47 1014.68 1014.85 1014.97 1015.04 1015.06 1015.04 1015.00 1014.92 1014.83 1014.73 1014.64 1014.56 1014.51 1014.48 1014.48 1014.51 1014.56 1014.61 1014.67 1014.71 1014.72 1014.69 1014.62 1014.50 1014.34 1014.14 1013.92 1013.69 1013.47 1013.28 1013.12 1013.01 1012.96 1012.97 1013.03 1013.14 1013.28 1013.43 1013.56 1013.65
1013.99 1014.32 1014.59 1014.80 1014.95 1015.03 1015.06 1015.05 1014.99 1014.92 1014.83 1014.75 1014.66 1014.60 1014.54 1014.50 1014.48 1014.47 1014.46 1014.46 1014.45 1014.43 1014.41 1014.36 1014.30 1014.22 1014.12 1014.00 1013.86 1013.72 1013.56 1013.41 1013.26 1013.13 1013.03 1012.96 1012.94 1012.96 1013.02 1013.12 1013.24 1013.35 1013.45
1013.91 1014.25 1014.53 1014.74 1014.87 1014.94 1014.95 1014.92 1014.86 1014.79 1014.72 1014.66 1014.62 1014.59 1014.57 1014.55 1014.53 1014.49 1014.44 1014.38 1014.30 1014.20 1014.10 1014.00 1013.90 1013.80 1013.72 1013.65 1013.59 1013.53 1013.46 1013.39 1013.31 1013.23 1013.14 1013.07 1013.02 1013.01 1013.02 1013.07 1013.15 1013.24 1013.33
1013.67 1014.01 1014.29 1014.50 1014.63 1014.69 1014.70 1014.68 1014.65 1014.61 1014.58 1014.57 1014.58 1014.59 1014.61 1014.61 1014.58 1014.53 1014.43 1014.30 1014.14 1013.96 1013.78 1013.62 1013.48 1013.38 1013.32 1013.30 1013.31 1013.34 1013.36 1013.38 1013.38 1013.36 1013.31 1013.25 1013.19 1013.14 1013.12 1013.14 1013.18 1013.24 1013.30
Thickness
5764 5763 5762 5760 5759 5758 5757 5756 5755 5754 5755 5755 5756 5756 5755 5754 5751 5750 5747 5746 5745 5743 5742 5740 5739 5738 5737 5736 5735 5734 5733 5733 5732 5732 5731 5731 5730 5729 5728 5726 5725 5723 5722
5763 5761 5759 5758 5757 5756 5755 5754 5753 5752 5752 5752 5752 5753 5752 5750 5748 5747 5746 5743 5742 5742 5740 5739 5738 5736 5735 5734 5733 5733 5732 5732 5731 5731 5731 5731 5730 5729 5728 5726 5725 5723 5721
5761 5760 5758 5756 5755 5755 5754 5753 5752 5751 5750 5749 5749 5749 5748 5747 5746 5745 5743 5742 5740 5739 5738 5737 5736 5735 5734 5733 5733 5732 5731 5731 5731 5731 5731 5731 5731 5729 5727 5726 5724 5722 5720
5760 5758 5756 5755 5754 5753 5752 5751 5749 5747 5746 5745 5745 5745 5745 5744 5744 5743 5742 5740 5739 5738 5736 5735 5735 5734 5733 5732 5732 5731 5731 5730 5731 5731 5731 5731 5730 5729 5727 5725 5723 5722 5720
5758 5756 5755 5753 5752 5751 5750 5749 5746 5744 5742 5741 5741 5742 5742 5741 5740 5741 5740 5739 5738 5737 5736 5734 5734 5733 5733 5732 5731 5730 5730 5730 5730 5730 5730 5730 5729 5728 5726 5724 5722 5721 5719
5756 5754 5753 5751 5750 5749 5747 5745 5743 5742 5740 5738 5739 5739 5739 5739 5738 5737 5736 5736 5736 5736 5735 5735 5733 5733 5732 5731 5730 5729 5729 5729 5729 5729 5729 5729 5727 5726 5724 5722 5721 5719 5718
5754 5752 5751 5750 5748 5746 5744 5743 5741 5738 5737 5737 5733 5731 5735 5738 5736 5735 5735 5735 5734 5735 5734 5733 5732 5732 5731 5730 5729 5728 5727 5727 5727 5727 5727 5726 5725 5724 5722 5721 5719 5717 5716
5752 5751 5748 5747 5746 5743 5741 5740 5738 5735 5734 5734 5729 5724 5722 5726 5730 5734 5733 5732 5732 5733 5732 5731 5730 5730 5730 5728 5727 5726 5726 5726 5726 5726 5725 5724 5723 5721 5720 5719 5717 5716 5714
5749 5747 5746 5745 5743 5741 5738 5736 5735 5732 5729 5730 5730 5724 5716 5713 5718 5725 5728 5728 5728 5728 5728 5728 5728 5727 5727 5726 5725 5724 5723 5723 5724 5724 5723 5721 5720 5719 5718 5717 5716 5714 5713
5746 5744 5743 5741 5740 5738 5736 5734 5733 5731 5728 5725 5726 5726 5723 5720 5713 5712 5719 5723 5724 5724 5724 5725 5725 5725 5723 5722 5721 5721 5720 5720 5720 5719 5719 5718 5716 5715 5714 5713 5713 5712 5711
5743 5742 5740 5738 5736 5734 5733 5731 5730 5728 5727 5724 5722 5721 5720 5720 5718 5710 5707 5712 5716 5720 5721 5721 5721 5721 5720 5719 5718 5717 5716 5717 5716 5715 5714 5713 5712 5711 5710 5710 5710 5709 5709
5738 5737 5737 5734 5732 5730 5729 5728 5727 5725 5723 5722 5720 5719 5716 5713 5711 5710 5706 5707 5708 5713 5717 5719 5718 5718 5717 5715 5714 5712 5712 5712 5711 5710 5709 5707 5707 5706 5705 5705 5705 5705 5705
5733 5733 5732 5730 5728 5727 5726 5725 5723 5721 5720 5718 5717 5716 5715 5714 5714 5711 5707 5705 5705 5709 5712 5714 5716 5715 5714 5712 5709 5708 5707 5707 5706 5705 5704 5703 5702 5701 5701 5701 5701 5701 5700
5730 5730 5728 5726 5724 5723 5723 5721 5720 5718 5716 5715 5715 5713 5712 5712 5712 5711 5707 5703 5699 5701 5704 5707 5711 5711 5710 5708 5706 5704 5703 5703 5702 5701 5699 5698 5697 5697 5696 5696 5696 5696 5695
5728 5726 5724 5723 5721 5720 5719 5717 5716 5715 5713 5712 5711 5710 5708 5709 5709 5709 5708 5705 5698 5692 5694 5700 5702 5706 5705 5704 5702 5700 5699 5698 5698 5697 5696 5695 5694 5693 5692 5692 5692 5691 5691
5723 5721 5719 5718 5717 5715 5714 5713 5712 5711 5709 5709 5708 5706 5705 5705 5706 5706 5705 5703 5700 5695 5691 5696 5698 5700 5701 5700 5698 5697 5695 5695 5694 5694 5693 5691 5690 5690 5689 5688 5688 5687 5687
5716 5715 5714 5713 5711 5710 5710 5708 5707 5707 5705 5704 5704 5703 5701 5702 5700 5700 5700 5699 5696 5694 5688 5691 5694 5696 5695 5695 5694 5693 5692 5691 5690 5690 5689 5688 5687 5686 5686 5685 5684 5684 5683
5712 5710 5709 5707 5706 5706 5705 5704 5702 5702 5701 5700 5699 5698 5697 5698 5695 5695 5693 5692 5691 5690 5686 5684 5687 5689 5690 5690 5690 5689 5689 5688 5688 5687 5687 5685 5684 5682 5682 5681 5681 5680 5680
5706 5705 5703 5702 5701 5700 5700 5700 5699 5698 5697 5696 5695 5694 5693 5692 5690 5689 5688 5687 5686 5686 5684 5681 5682 5684 5685 5686 5685 5684 5684 5684 5684 5684 5683 5681 5679 5678 5678 5677 5677 5676 5674
5700 5699 5698 5697 5697 5696 5695 5695 5694 5693 5693 5692 5692 5691 5689 5688 5685 5684 5684 5682 5681 5680 5679 5677 5676 5677 5679 5680 5679 5676 5676 5678 5678 5679 5678 5676 5675 5674 5673 5673 5672 5671 5670
5694 5693 5692 5692 5692 5691 5690 5689 5689 5689 5687 5686 5686 5686 5685 5683 5681 5680 5679 5677 5676 5674 5673 5671 5670 5670 5671 5671 5671 5671 5669 5671 5672 5673 5671 5671 5670 5669 5668 5668 5667 5667 5665
5687 5686 5685 5685 5685 5686 5684 5683 5683 5683 5682 5681 5680 5680 5680 5678 5677 5675 5674 5673 5671 5669 5668 5666 5665 5664 5664 5666 5666 5665 5663 5663 5662 5666 5665 5664 5666 5664 5664 5664 5664 5663 5662
5679 5678 5678 5679 5679 5678 5678 5677 5677 5677 5676 5676 5675 5674 5674 5675 5672 5671 5669 5668 5667 5666 5664 5663 5660 5660 5660 5661 5660 5658 5657 5656 5656 5659 5659 5658 5660 5659 5660 5660 5660 5659 5657
5672 5672 5673 5673 5673 5673 5671 5671 5671 5672 5671 5671 5670 5669 5667 5667 5666 5665 5664 5663 5662 5662 5662 5659 5659 5658 5658 5658 5657 5655 5653 5653 5654 5655 5656 5651 5653 5654 5654 5653 5653 5653 5652
5664 5666 5667 5667 5667 5666 5665 5665 5664 5665 5665 5665 5665 5664 5663 5662 5660 5659 5658 5657 5656 5656 5657 5656 5655 5654 5653 5653 5651 5649 5648 5646 5645 5647 5649 5647 5647 5647 5648 5647 5647 5646 5645
5657 5659 5660 5662 5662 5661 5659 5659 5658 5660 5660 5659 5659 5659 5658 5657 5655 5653 5652 5651 5650 5650 5650 5650 5649 5648 5648 5648 5647 5644 5643 5641 5640 5640 5643 5642 5641 5640 5638 5641 5641 5640 5638